Tracking 29892 objects as of 21-Nov-2024
HD Live streaming from Space Station
objects crossing your sky now

STARLINK-2688

Track STARLINK-2688 now!
10-day predictions
STARLINK-2688 is classified as:


NORAD ID: 48660
Int'l Code: 2021-044Y
Perigee: 538.7 km
Apogee: 540.6 km
Inclination: 53.1 °
Period: 95.3 minutes
Semi major axis: 6910 km
RCS: Unknown
Launch date: May 26, 2021
Source: United States (US)
Launch site: AIR FORCE EASTERN TEST RANGE (AFETR)
Your satellite tracking list
Your tracking list is empty




NASA's NSSDC Master Catalog

Two Line Element Set (TLE):
1 48660U 21044Y   24326.16667824  .01179924  00000-0  63670-1 0  9998
2 48660  53.0534  87.3068 0001401  77.1844 108.0651 15.11215002193186
Source of the keplerian elements: AFSPC